K9ABJ Weather Reports


time (UTC)temp
C
wind
direction
speed
KPH
gust
KPH
rain 1hr
cm
rain 24hr
cm
rain mn
cm
humidity
%
barometer
mb
20260906095350 17 51 11.3 16.1 0.00 0.00 0.00 85 1016.9
20260906094850 17 43 16.1 16.1 0.00 0.00 0.00 85 1016.7
20260906094345 17 55 17.7 17.7 0.00 0.00 0.00 84 1016.8
20260906093841 17 73 17.7 22.5 0.00 0.00 0.00 84 1016.8
20260906093337 17 60 11.3 14.5 0.00 0.00 0.00 84 1017.0
20260906092831 17 47 12.9 16.1 0.00 0.00 0.00 84 1016.7
20260906092331 17 60 9.7 14.5 0.00 0.00 0.00 84 1017.2
20260906091827 17 64 14.5 17.7 0.00 0.00 0.00 83 1017.0
20260906091323 17 46 8.0 14.5 0.00 0.00 0.00 83 1017.1
20260906090820 18 72 11.3 19.3 0.00 0.00 0.00 82 1017.2
20260906090318 18 59 14.5 17.7 0.00 0.00 0.00 82 1017.2
20260906085819 18 76 14.5 22.5 0.00 0.00 0.00 82 1016.7
20260906085318 18 65 11.3 17.7 0.00 0.00 0.00 82 1016.9
20260906084813 18 63 11.3 20.9 0.00 0.00 0.00 82 1016.9
20260906084312 18 39 12.9 16.1 0.00 0.00 0.00 81 1017.0
20260906083807 18 54 17.7 19.3 0.00 0.00 0.00 82 1017.1
20260906083303 18 53 14.5 20.9 0.00 0.00 0.00 82 1016.8
20260906082757 18 64 11.3 17.7 0.00 0.00 0.00 82 1016.8
20260906082252 18 58 8.0 16.1 0.00 0.00 0.00 83 1017.0
20260906081748 19 62 11.3 17.7 0.00 0.00 0.00 82 1016.7
20260906081243 19 59 11.3 22.5 0.00 0.00 0.00 82 1016.9
20260906080740 19 45 14.5 20.9 0.00 0.00 0.00 82 1016.9
20260906080236 20 46 16.1 19.3 0.00 0.00 0.00 82 1016.9
20260906075736 19 68 20.9 22.5 0.00 0.00 0.00 83 1016.9
20260906075236 20 54 11.3 14.5 0.00 0.00 0.00 85 1017.1
20260906074731 20 44 12.9 24.1 0.00 0.00 0.00 85 1017.0
20260906074230 20 49 12.9 17.7 0.00 0.00 0.00 87 1016.7
20260906073730 20 51 14.5 17.7 0.00 0.00 0.00 89 1016.9
20260906073225 20 39 12.9 25.7 0.00 0.00 0.00 89 1016.9
20260906072721 20 57 9.7 20.9 0.00 0.00 0.00 90 1017.0
20260906072216 20 72 12.9 16.1 0.00 0.00 0.00 91 1017.0
20260906071712 20 64 14.5 19.3 0.00 0.00 0.00 91 1016.7
20260906071212 20 62 12.9 16.1 0.00 0.00 0.00 91 1017.0
20260906070709 20 75 11.3 14.5 0.00 0.00 0.00 91 1016.8
20260906070204 20 68 11.3 14.5 0.00 0.00 0.00 91 1016.7
20260906065704 20 58 11.3 19.3 0.00 0.00 0.00 90 1016.8
20260906065159 20 61 11.3 16.1 0.00 0.00 0.00 89 1016.6
20260906064655 20 68 11.3 14.5 0.00 0.00 0.00 89 1016.7
20260906064150 20 75 14.5 19.3 0.00 0.00 0.00 88 1016.5
20260906063645 20 66 14.5 24.1 0.00 0.00 0.00 87 1016.6
20260906063141 21 67 14.5 20.9 0.00 0.00 0.00 86 1016.7
20260906062637 21 80 6.4 20.9 0.00 0.00 0.00 86 1016.7
20260906062135 21 46 19.3 27.4 0.00 0.00 0.00 86 1016.6
20260906061632 21 47 14.5 27.4 0.00 0.00 0.00 86 1016.7
20260906061131 21 69 12.9 19.3 0.00 0.00 0.00 87 1016.7
20260906060628 21 61 14.5 16.1 0.00 0.00 0.00 87 1017.0
20260906060125 21 53 14.5 17.7 0.00 0.00 0.00 87 1016.4
20260906055621 21 55 11.3 22.5 0.00 0.00 0.00 86 1016.4
20260906055121 21 46 9.7 17.7 0.00 0.00 0.00 86 1016.4
20260906054616 21 63 12.9 17.7 0.00 0.00 0.00 86 1016.6
20260906054111 21 49 16.1 19.3 0.00 0.00 0.00 86 1016.2
20260906053608 21 69 14.5 16.1 0.00 0.00 0.00 87 1016.4
20260906053103 21 66 9.7 19.3 0.00 0.00 0.00 87 1016.3
20260906052558 21 60 14.5 20.9 0.00 0.00 0.00 87 1016.3
20260906052055 21 73 11.3 17.7 0.00 0.00 0.00 87 1016.2
20260906051556 21 39 11.3 17.7 0.00 0.00 0.00 87 1016.3
20260906051051 21 66 8.0 16.1 0.00 0.00 0.00 87 1016.1
20260906050546 21 65 14.5 17.7 0.00 0.00 0.00 87 1016.2
20260906050042 21 55 12.9 19.3 0.00 0.00 0.00 87 1015.9
20260906045539 21 57 14.5 19.3 0.00 0.00 0.00 86 1016.1
20260906045036 21 46 17.7 22.5 0.00 0.00 0.00 86 1016.1
20260906044531 21 53 17.7 24.1 0.00 0.00 0.00 86 1016.0
20260906044026 21 68 11.3 14.5 0.00 0.00 0.00 86 1015.8
20260906043522 21 64 14.5 20.9 0.00 0.00 0.00 85 1015.9
20260906043018 21 40 16.1 25.7 0.00 0.00 0.00 84 1015.8
20260906042516 22 74 22.5 30.6 0.00 0.00 0.00 84 1015.7
20260906042011 22 59 17.7 22.5 0.00 0.00 0.00 84 1015.8
20260906041508 22 53 20.9 22.5 0.00 0.00 0.00 85 1015.9
20260906041007 22 53 20.9 25.7 0.00 0.00 0.00 85 1015.9
20260906040502 22 73 12.9 20.9 0.00 0.00 0.00 86 1015.9
20260906035957 22 57 12.9 17.7 0.00 1.42 1.42 86 1015.8
20260906035453 22 61 17.7 17.7 0.00 1.42 1.42 86 1015.8
20260906034948 22 57 12.9 17.7 0.00 1.42 1.42 87 1015.5
20260906034443 22 58 11.3 17.7 0.00 1.42 1.42 87 1015.5
20260906033938 22 64 17.7 24.1 0.00 1.42 1.42 87 1015.7
20260906033438 22 50 12.9 17.7 0.00 1.42 1.42 87 1015.6
20260906032934 22 61 16.1 17.7 0.00 1.42 1.42 87 1015.7
20260906032431 22 51 12.9 24.1 0.00 1.42 1.42 87 1015.7
20260906031930 22 67 14.5 17.7 0.00 1.42 1.42 88 1015.8
20260906031426 22 74 16.1 17.7 0.00 1.42 1.42 89 1015.8
20260906030921 22 62 11.3 17.7 0.00 1.42 1.42 89 1015.9
20260906030416 22 77 12.9 16.1 0.00 1.42 1.42 90 1015.6
20260906025911 22 75 11.3 17.7 0.00 1.42 1.42 90 1015.5
20260906025411 22 55 14.5 16.1 0.00 1.42 1.42 90 1015.6
20260906024909 21 83 12.9 17.7 0.00 1.42 1.42 90 1015.5
20260906024409 22 59 11.3 24.1 0.00 1.42 1.42 91 1015.7
20260906023904 21 65 16.1 17.7 0.00 1.42 1.42 91 1015.3
20260906023401 22 63 19.3 22.5 0.00 1.42 1.42 92 1015.4
20260906022900 22 54 14.5 17.7 0.00 1.42 1.42 92 1015.3
20260906022355 22 67 19.3 22.5 0.00 1.42 1.42 92 1015.2
20260906021851 22 67 17.7 17.7 0.00 1.42 1.42 92 1015.1
20260906021350 22 42 17.7 22.5 0.00 1.42 1.42 92 1015.1
20260906020845 22 69 17.7 20.9 0.00 1.42 1.42 92 1015.2
20260906020345 22 68 14.5 20.9 0.00 1.42 1.42 92 1015.3
20260906015839 22 64 12.9 17.7 0.00 1.42 1.42 92 1015.3
20260906015339 22 75 25.7 25.7 0.00 1.42 1.42 92 1015.3
20260906014839 22 58 14.5 17.7 0.00 1.42 1.42 92 1015.0
20260906014333 22 43 12.9 20.9 0.00 1.42 1.42 92 1015.1
20260906013830 22 61 19.3 19.3 0.00 1.42 1.42 92 1014.8
20260906013325 22 56 20.9 20.9 0.00 1.42 1.42 92 1015.0
20260906012820 22 63 12.9 22.5 0.00 1.42 1.42 92 1014.9
20260906012321 22 42 20.9 24.1 0.00 1.42 1.42 92 1014.7
20260906011815 22 51 16.1 20.9 0.00 1.42 1.42 91 1014.5
20260906011315 22 37 19.3 25.7 0.00 1.42 1.42 91 1014.5
20260906010812 22 58 17.7 29.0 0.00 1.42 1.42 91 1014.4
20260906010308 22 47 17.7 24.1 0.00 1.42 1.42 90 1014.4
20260906005802 22 34 19.3 27.4 0.00 1.42 1.42 90 1014.5
20260906005301 23 54 12.9 24.1 0.00 1.42 1.42 90 1014.5
20260906004800 23 54 11.3 24.1 0.00 1.42 1.42 90 1014.6
20260906004255 23 41 17.7 22.5 0.00 1.42 1.42 90 1014.2
20260906003756 23 32 16.1 29.0 0.00 1.42 1.42 90 1014.3
20260906003251 23 57 17.7 27.4 0.00 1.42 1.42 90 1014.3
20260906002747 23 34 19.3 29.0 0.00 1.42 1.42 89 1014.3
20260906002246 23 49 17.7 25.7 0.00 1.42 1.42 89 1014.5
20260906001742 23 40 25.7 30.6 0.00 1.42 1.42 89 1014.2
20260906001237 23 41 22.5 30.6 0.00 1.42 1.42 89 1014.4
20260906000732 23 45 17.7 25.7 0.00 1.42 1.42 89 1014.3
20260906000234 23 31 17.7 33.8 0.00 1.42 1.42 89 1014.3
20260905235727 23 53 12.9 27.4 0.00 1.42 1.42 88 1014.3
20260905235227 23 26 17.7 27.4 0.00 1.42 1.42 88 1014.5
20260905234723 23 15 24.1 29.0 0.00 1.42 1.42 88 1014.6
20260905234218 23 43 20.9 38.6 0.00 1.42 1.42 89 1014.3
20260905233713 23 42 17.7 30.6 0.00 1.42 1.42 89 1014.0
20260905233212 24 48 16.1 22.5 0.00 1.42 1.42 89 1014.1
20260905232707 24 42 12.9 27.4 0.00 1.42 1.42 89 1014.2
20260905232203 24 40 25.7 32.2 0.00 1.42 1.42 88 1014.2
20260905231658 25 46 14.5 20.9 0.00 1.42 1.42 87 1014.0
20260905231154 25 33 25.7 27.4 0.00 1.42 1.42 88 1013.7
20260905230650 25 69 14.5 27.4 0.00 1.42 1.42 87 1013.8
20260905230148 25 61 14.5 22.5 0.00 1.42 1.42 87 1013.6
20260905225647 25 54 14.5 19.3 0.00 1.42 1.42 86 1013.5
20260905225142 25 16 14.5 27.4 0.00 1.42 1.42 85 1013.3
20260905224641 26 63 14.5 27.4 0.00 1.42 1.42 85 1013.3
20260905224136 26 61 16.1 22.5 0.00 1.42 1.42 85 1013.0
20260905223633 26 56 17.7 37.0 0.00 1.42 1.42 84 1013.0
20260905223129 26 32 16.1 24.1 0.00 1.42 1.42 83 1013.1
20260905222625 27 67 14.5 19.3 0.00 1.42 1.42 81 1013.0
20260905222120 26 30 19.3 22.5 0.00 1.42 1.42 82 1012.9
20260905221615 27 33 11.3 17.7 0.00 1.42 1.42 81 1012.8
20260905221112 26 41 19.3 24.1 0.00 1.42 1.42 82 1012.9
20260905220607 26 51 25.7 25.7 0.00 1.42 1.42 83 1013.0
20260905220103 26 42 14.5 20.9 0.00 1.42 1.42 84 1012.7
20260905215602 26 29 20.9 32.2 0.00 1.42 1.42 85 1012.7
20260905215058 26 54 12.9 22.5 0.00 1.42 1.42 84 1012.8
20260905214555 26 18 27.4 32.2 0.00 1.42 1.42 83 1012.7
20260905214054 27 27 25.7 25.7 0.00 1.42 1.42 83 1012.5
20260905213550 27 50 17.7 22.5 0.00 1.42 1.42 83 1012.6
20260905213045 27 31 20.9 25.7 0.00 1.42 1.42 82 1012.6
20260905212545 27 37 17.7 27.4 0.00 1.42 1.42 83 1012.3
20260905212045 27 55 11.3 24.1 0.00 1.42 1.42 84 1012.3
20260905211540 27 46 11.3 25.7 0.00 1.42 1.42 82 1012.4
20260905211036 28 46 16.1 20.9 0.00 1.42 1.42 81 1012.6
20260905210532 28 55 12.9 20.9 0.00 1.42 1.42 81 1012.4
20260905210032 29 57 12.9 14.5 0.00 1.42 1.42 78 1012.7
20260905205531 28 39 11.3 19.3 0.00 1.42 1.42 80 1012.9
20260905205030 28 63 16.1 22.5 0.00 1.42 1.42 78 1012.7
20260905204525 28 57 11.3 22.5 0.00 1.42 1.42 80 1012.9
20260905204021 29 65 12.9 19.3 0.00 1.42 1.42 77 1012.8
20260905203520 30 33 9.7 14.5 0.00 1.42 1.42 76 1012.8
20260905203016 29 58 20.9 20.9 0.00 1.42 1.42 78 1013.0
20260905202511 28 58 11.3 17.7 0.00 1.42 1.42 79 1013.1
20260905202007 29 4 8.0 12.9 0.00 1.42 1.42 76 1013.3
20260905201502 30 57 9.7 14.5 0.00 1.42 1.42 76 1013.5
20260905201001 29 60 11.3 16.1 0.00 1.42 1.42 77 1013.2
20260905200457 29 84 11.3 20.9 0.00 1.42 1.42 77 1013.3
20260905195955 28 72 12.9 16.1 0.00 1.42 1.42 79 1013.3
20260905195451 28 45 12.9 16.1 0.00 1.42 1.42 78 1013.1
20260905194946 29 72 9.7 14.5 0.00 1.42 1.42 79 1013.2
20260905194446 30 76 14.5 14.5 0.00 1.42 1.42 78 1013.5
20260905193941 28 49 9.7 16.1 0.00 1.42 1.42 81 1013.3
20260905193440 27 50 12.9 22.5 0.00 1.42 1.42 82 1013.3
20260905192936 27 57 12.9 16.1 0.00 1.42 1.42 81 1013.6
20260905192431 27 73 6.4 16.1 0.00 1.42 1.42 82 1013.3
20260905191926 28 71 9.7 14.5 0.00 1.42 1.42 80 1013.5
20260905191425 28 83 14.5 14.5 0.00 1.42 1.42 80 1013.3
20260905190920 30 78 11.3 16.1 0.00 1.42 1.42 77 1013.2
20260905190417 29 68 11.3 14.5 0.00 1.42 1.42 76 1013.6
20260905185916 28 68 11.3 14.5 0.00 1.42 1.42 78 1013.8
20260905185412 27 91 11.3 14.5 0.00 1.42 1.42 82 1013.6
20260905184910 28 88 9.7 12.9 0.00 1.42 1.42 79 1013.6
20260905184411 29 73 9.7 12.9 0.00 1.42 1.42 78 1013.6
20260905183909 28 43 9.7 14.5 0.00 1.42 1.42 80 1013.7
20260905183404 27 111 9.7 12.9 0.00 1.42 1.42 83 1013.8
20260905182900 27 137 9.7 14.5 0.00 1.42 1.42 81 1013.7
20260905182358 28 102 9.7 14.5 0.00 1.42 1.42 80 1013.9
20260905181855 28 125 9.7 16.1 0.00 1.42 1.42 79 1013.9
20260905181354 30 113 8.0 17.7 0.00 1.42 1.42 74 1013.8
20260905180854 28 92 8.0 16.1 0.00 1.42 1.42 79 1013.9
20260905180349 28 95 9.7 16.1 0.00 1.42 1.42 78 1013.8
20260905175844 27 89 11.3 17.7 0.00 1.42 1.42 81 1014.1
20260905175343 27 92 11.3 14.5 0.00 1.42 1.42 81 1013.9
20260905174839 27 105 11.3 12.9 0.00 1.42 1.42 81 1014.0
20260905174335 28 79 11.3 14.5 0.00 1.42 1.42 79 1014.0
20260905173830 27 86 6.4 11.3 0.00 1.42 1.42 80 1013.9
20260905173326 28 89 12.9 16.1 0.00 1.42 1.42 77 1014.1
20260905172826 28 99 11.3 12.9 0.00 1.42 1.42 77 1014.0
20260905172324 30 87 9.7 14.5 0.00 1.42 1.42 74 1014.0
20260905171820 28 76 12.9 14.5 0.00 1.42 1.42 76 1014.2
20260905171317 27 111 9.7 12.9 0.00 1.42 1.42 80 1014.3
20260905170813 28 70 11.3 14.5 0.00 1.42 1.42 77 1014.4
20260905170309 28 66 11.3 12.9 0.00 1.42 1.42 79 1014.3
20260905165808 28 89 12.9 12.9 0.00 1.42 1.42 78 1014.4
20260905165306 28 71 11.3 14.5 0.00 1.42 1.42 77 1014.5
20260905164803 27 101 9.7 14.5 0.00 1.42 1.42 81 1014.4
20260905164258 27 78 9.7 16.1 0.00 1.42 1.42 81 1014.6
20260905163754 26 117 11.3 17.7 0.00 1.42 1.42 83 1014.4
20260905163250 26 120 8.0 12.9 0.00 1.42 1.42 82 1014.3
20260905162746 26 122 9.7 17.7 0.00 1.42 1.42 83 1014.6
20260905162245 26 138 16.1 17.7 0.00 1.42 1.42 83 1014.6
20260905161740 26 96 12.9 16.1 0.00 1.42 1.42 85 1014.4
20260905161239 26 103 9.7 14.5 0.00 1.42 1.42 85 1014.6
20260905160738 26 91 11.3 16.1 0.00 1.42 1.42 86 1014.4
20260905160237 25 83 11.3 16.1 0.00 1.42 1.42 87 1014.6
20260905155732 26 92 9.7 14.5 0.00 1.42 1.42 86 1014.5
20260905155231 26 79 12.9 14.5 0.00 1.42 1.42 85 1014.6
20260905154725 25 75 8.0 16.1 0.00 1.42 1.42 86 1014.8
20260905154221 25 81 14.5 14.5 0.00 1.42 1.42 88 1014.6
20260905153716 25 76 14.5 16.1 0.00 1.42 1.42 85 1014.7
20260905153212 25 73 14.5 16.1 0.00 1.42 1.42 89 1014.5
20260905152707 24 75 11.3 16.1 0.00 1.42 1.42 89 1014.7
20260905152201 25 66 14.5 14.5 0.00 1.42 1.42 88 1014.8
20260905151701 25 71 12.9 14.5 0.00 1.42 1.42 88 1014.6
20260905151157 25 79 11.3 17.7 0.00 1.42 1.42 89 1014.6
20260905150652 24 89 14.5 16.1 0.00 1.42 1.42 89 1014.5
20260905150150 24 81 11.3 14.5 0.00 1.42 1.42 90 1014.4
20260905145648 24 69 9.7 14.5 0.00 1.42 1.42 90 1014.5
20260905145143 24 73 11.3 16.1 0.00 1.42 1.42 91 1014.4
20260905144637 23 69 11.3 12.9 0.00 1.42 1.42 93 1014.3
20260905144137 23 97 14.5 14.5 0.00 1.42 1.42 94 1014.2
20260905143632 22 81 11.3 12.9 0.00 1.42 1.42 95 1014.2
20260905143132 22 89 9.7 12.9 0.00 1.42 1.42 95 1014.2
20260905142630 22 70 12.9 14.5 0.00 1.42 1.42 95 1014.4
20260905142131 22 106 8.0 14.5 0.00 1.42 1.42 95 1014.3
20260905141630 21 86 12.9 17.7 0.00 1.42 1.42 95 1014.1
20260905141127 21 82 17.7 20.9 0.00 1.42 1.42 95 1014.3
20260905140622 21 132 11.3 11.3 0.00 1.42 1.42 95 1014.1
20260905140121 21 132 11.3 11.3 0.00 1.42 1.42 96 1014.0
20260905135616 20 132 11.3 11.3 0.00 1.42 1.42 96 1014.0
20260905135112 21 132 11.3 11.3 0.00 1.42 1.42 96 1014.0
20260905134606 20 132 11.3 11.3 0.00 1.42 1.42 96 1014.1
20260905134105 20 132 11.3 11.3 0.00 1.42 1.42 96 1014.2
20260905133601 20 132 11.3 11.3 0.00 1.42 1.42 96 1014.0
20260905133100 20 132 11.3 11.3 0.00 1.42 1.42 96 1014.0
20260905132600 20 132 11.3 11.3 0.00 1.42 1.42 96 1014.0
20260905132055 21 132 11.3 11.3 0.00 1.42 1.42 96 1014.2
20260905131550 21 132 11.3 11.3 0.00 1.42 1.42 96 1014.1
20260905131046 21 132 11.3 11.3 0.00 1.42 1.42 96 1013.8
20260905130545 21 132 11.3 11.3 0.00 1.42 1.42 97 1013.7
20260905130040 21 132 11.3 11.3 0.00 1.42 1.42 96 1013.9
20260905125539 21 132 11.3 11.3 0.00 1.42 1.42 96 1013.6
20260905125035 21 132 11.3 11.3 0.00 1.42 1.42 96 1013.9
20260905124532 21 132 11.3 11.3 0.00 1.42 1.42 96 1013.6
20260905124027 21 132 11.3 11.3 0.00 1.42 1.42 96 1013.8
20260905123523 20 132 11.3 11.3 0.00 1.42 1.42 96 1013.7
20260905123020 20 132 11.3 11.3 0.05 1.42 1.42 96 1013.6
20260905122519 20 132 11.3 11.3 0.00 1.40 1.40 96 1013.6
20260905122014 20 132 11.3 11.3 0.00 1.40 1.40 96 1013.8
20260905121515 20 132 11.3 11.3 0.00 1.40 1.40 96 1013.8
20260905121009 20 132 11.3 11.3 0.00 1.40 1.40 96 1013.7
20260905120509 20 132 11.3 11.3 0.00 1.40 1.40 96 1013.8
20260905120004 20 132 11.3 11.3 0.00 1.40 1.40 96 1013.8
20260905115503 20 132 11.3 11.3 0.00 1.40 1.40 96 1013.3
20260905114958 20 132 11.3 11.3 0.00 1.40 1.40 96 1013.5
20260905114458 20 132 11.3 11.3 0.00 1.40 1.40 96 1013.5
20260905113956 20 132 11.3 11.3 0.00 1.40 1.40 96 1013.5
20260905113452 20 132 11.3 11.3 0.00 1.40 1.40 96 1013.6
20260905112947 20 132 11.3 11.3 0.00 1.40 1.40 96 1013.5
20260905112442 20 132 11.3 11.3 0.00 1.40 1.40 96 1013.3
20260905111938 20 132 11.3 11.3 0.23 1.40 1.40 96 1013.5
20260905111438 20 132 11.3 11.3 0.43 1.40 1.40 96 1013.3
20260905110932 20 132 11.3 11.3 0.18 1.35 1.35 96 1013.3
20260905110431 20 132 11.3 11.3 0.00 1.32 1.32 96 1013.2
20260905105931 20 132 11.3 11.3 0.00 1.32 1.32 95 1013.6
20260905105426 20 132 11.3 11.3 0.00 1.32 1.32 95 1013.3
20260905104926 20 132 11.3 11.3 0.00 1.32 1.32 95 1013.3
20260905104422 20 132 11.3 11.3 0.00 1.32 1.32 95 1013.5
20260905103922 20 132 11.3 11.3 0.00 1.32 1.32 95 1013.3
20260905103417 20 132 11.3 11.3 0.00 1.32 1.32 95 1013.6
20260905102913 20 132 11.3 11.3 0.00 1.32 1.32 95 1013.3
20260905102409 20 132 11.3 11.3 0.00 1.32 1.32 95 1013.6
20260905101909 20 132 11.3 11.3 0.00 1.32 1.32 95 1013.8
20260905101408 20 132 11.3 11.3 0.00 1.32 1.32 95 1013.6
20260905100903 20 132 11.3 11.3 0.00 1.32 1.32 95 1014.1
20260905100359 20 132 11.3 11.3 0.00 1.32 1.32 95 1013.9
20260905095858 20 132 11.3 11.3 0.00 1.32 1.32 95 1013.2